Starlink 30832

operational
NORAD ID: 58354 Int'l Des: 2023-177 Owner: SPXS Country: US Constellation: starlink
LEOCIRCULAR

关于 Starlink 30832

正在加载描述...

实时位置

正在加载3D地球...

即将过境

高度历史

Altitude vs Time

uPlot chart will show altitude changes over time

两行轨道根数

1 58354U 23177D 25304.49620981 .00000176 00000-0 28127-4 0 9996
2 58354 43.0054 333.4244 0001156 264.5824 95.4886 15.02536771108736
Epoch: Oct 31, 2025 • Age: 24 hours

当前状态

高度 571.3 km
速度 7.58 km/s
星下点 -42.35°S, 38.39°E
发射日期 Nov 18, 2023
运行时间 1.9 years
类型 internet

技术详情

分类 Payload
质量 730.00 kg
干质量 700.00 kg
总质量 730.00 kg
长度 0.30 m
直径 4.10 m
跨度 29.00 m
形状 Box + pan
制造商 SPXS
平台类型 Starlink V2M
阶段状态 In Orbit
所有者/国家 SPXS/US

大型星座

Loading constellations...